Disclaimer

Please do not use the information listed here in-flight or in-navigation, as they are not provided to us by the airports but are provided by volunteers, so they might be outdated.

Search


Regions


Airport information page

Radio informations:
Tower (TWR) - 118.85 MHz
RDR - 125.5 MHz
Ground (GND) - 121.8 MHz
DEP - 120.0 MHz
CLD - 121.85 MHz
Automatic Terminal Information Service (ATIS) - 121.075 MHz

Airport informations:
Latitude: 34° 51' 30.29" N
Longitude: 136° 48' 19.47" E
Elevation: 15 feet - 5 meters
Operating hours: 24 hour operations
Operating agency: Civil government, landing fees and diplomatic clearance may be required
Timezone: UTC+9
Fuel: N/A

Runway information:
18/36 - 11483 x 197 feet< - >3500 x 60 meters

Recent METARs:
RJGG 212030Z 27019KT 9999 FEW020 SCT060 07/01 Q1013 NOSIG
RJGG 212100Z 28022KT 9999 FEW020 07/01 Q1012 NOSIG
RJGG 212130Z 27023KT 9999 FEW020 07/01 Q1013 NOSIG

Airport on the map: